Simultaneous Nadir Overpasses (SNOs) Predictions

Prediction of SNOs between AQUA and METOP-B Satellite Orbit:

Table of predicted SNOs for the next 14.0 days since TLE Epoch: 2/14/2020
Index Date (AQUA) Time (AQUA) Lat,Lon (AQUA) SZA (AQUA ) Date (METOP-B) Time (METOP-B) Lat,Lon (METOP-B) SZA (METOP-B ) Distance(km) Time Diff (sec)
1 02/16/2020 19:56:42 -73.75, 55.20 93.84 02/16/2020 19:56:03 -73.77, 55.18 93.81 2.59 39
2 02/16/2020 20:46:11 73.86,-137.40 86.27 02/16/2020 20:46:41 73.84,-137.32 86.24 2.84 30
3 02/19/2020 15:30:59 -73.79, 121.54 94.79 02/19/2020 15:30:25 -73.80, 121.64 94.78 3.14 34
4 02/19/2020 16:20:27 73.85, -70.95 85.27 02/19/2020 16:21:03 73.86, -70.86 85.27 3.19 36
5 02/22/2020 11:05:16 -73.79,-172.02 95.81 02/22/2020 11:04:49 -73.77,-172.02 95.82 1.88 27
6 02/22/2020 11:54:44 73.85, -4.52 84.25 02/22/2020 11:55:27 73.84, -4.52 84.23 1.59 43
7 02/25/2020 06:39:33 -73.79,-105.59 96.85 02/25/2020 06:39:12 -73.79,-105.56 96.84 0.92 21
8 02/25/2020 07:29:01 73.86, 61.90 83.22 02/25/2020 07:29:50 73.86, 61.93 83.21 0.93 49
9 02/28/2020 01:24:12 73.25, 154.36 81.53 02/28/2020 01:23:04 73.20, 152.16 81.60 70.72 68
10 02/28/2020 02:13:49 -73.80, -39.17 97.89 02/28/2020 02:13:34 -73.81, -39.10 97.88 2.61 15
11 02/28/2020 03:03:17 73.87, 128.31 82.18 02/28/2020 03:04:12 73.88, 128.39 82.17 2.54 55




NCC Satellite Simultaneous Nadir Overpasses (SNOs) Prediction Service
